weather.gov     
National Weather Service

Regional Weather Roundup
NWS Homepage
This page is being discontinued on March 12, 2014.
The same data is available at this site. Please update your bookmarks.
Thank you, and we apologize for the inconvenience.
Please send an email to SR-SRH.Webmaster@noaa.gov with any concerns.


Current Version
Previous Version:    01  02  03  04  05  06  07  08  09  10  11  12  13  14  15  16  17  18  19  20  21  22  23  24  25  26  27  28  29  30  
   31  32  33  34  35  36  37  38  39  40  41  42  43  44  45  46  47  48  49  50  51  52  53  54  55  56  57  58  59  60  
[Printable]
822
ASUS43 KEAX 012211
RWREAX

WEATHER ROUNDUP FOR EASTERN KANSAS AND NORTHWEST MISSOURI
NATIONAL WEATHER SERVICE KANSAS CITY/PLEASANT HILL MO
500 PM CDT WED OCT 01 2014

KSZ040-057-103>105-MOZ028-029-037-043-012300-
...KANSAS CITY METROPOLITAN AREA...

CITY           SKY/WX    TMP DP  RH WIND       PRES   REMARKS
K.C. INTL      PTSUNNY   78  68  71 SE5       29.73R
K.C. DOWNTOWN  PTSUNNY   79  69  71 E7        29.70R
LEES SUMMIT    PTSUNNY   72  68  87 E9        29.75R
OLATHE - IXD   CLOUDY    78  69  73 CALM      29.72R THUNDER
OLATHE - OJC   CLOUDY    77  69  76 E5        29.71R THUNDER
LAWRENCE       CLOUDY    82  65  56 SE3       29.70R

$$

MOZ001>008-011>017-020>025-030>033-038>040-044>046-053-054-012300-
...NORTHERN AND CENTRAL MISSOURI...

CITY           SKY/WX    TMP DP  RH WIND       PRES   REMARKS
ST. JOSEPH     PTSUNNY   78  67  68 SE7       29.71F
MOSBY          MOCLDY    73  66  78 E7        29.73R
WHITEMAN AFB   TSTM      66  64  94 E7        29.74R
CLINTON        CLOUDY    70  66  88 NE9       29.72S
SEDALIA        PTSUNNY   69  65  86 E12G18    29.76F
WARSAW         NOT AVBL
MARSHALL       CLOUDY    70  68  94 NE7       29.79R FOG
CHILLICOTHE      N/A     72  67  84 SE5       29.76F
MOBERLY        CLOUDY    68  64  88 E7        29.78F FOG
KIRKSVILLE     PTSUNNY   68  66  93 SE7       29.78F FOG

$$

MOZ041-047>049-056>058-063>065-088>090-097-012300-
...EASTERN AND SOUTHERN MISSOURI...

CITY           SKY/WX    TMP DP  RH WIND       PRES   REMARKS
ST. LOUIS INTL PTSUNNY   87  62  43 SE15      29.79F
SPIRIT OF STL  MOSUNNY   84  63  49 VRB5      29.76F
COLUMBIA       TSTM      68  67  96 W15       29.82R FOG
JEFFERSON CITY CLOUDY    81  65  58 VRB3      29.73S THUNDER
MEXICO         CLOUDY    68  68 100 NE7       29.78F
ROLLA          PTSUNNY   86  61  42 S15       29.77F
LEBANON        SUNNY     84  64  51 S7        29.79S
OSAGE BEACH    PTSUNNY   84  63  48 S10       29.74F
SPRINGFIELD    MOSUNNY   83  65  54 S13       29.76F
BRANSON        MOSUNNY   86  64  48 S13       29.81S
NEVADA         CLOUDY    81  66  61 S13       29.72S
JOPLIN         CLOUDY    81  66  60 S14       29.74R THUNDER
WEST PLAINS    PTSUNNY   82  66  58 SE10      29.85R

$$

IAZ060-094-KSZ022-034>040-054-083-096-NEZ052-066-093-012300-
...KANSAS...SOUTHEAST NEBRASKA AND IOWA...

CITY           SKY/WX    TMP DP  RH WIND       PRES   REMARKS
TOPEKA         CLOUDY    83  67  58 S6        29.69R
MANHATTAN      PTSUNNY   81  67  62 E5        29.68S
EMPORIA        MOSUNNY   82  69  64 SE12      29.69S
CHANUTE        PTSUNNY   78  69  73 SE8       29.70F
WICHITA        MOSUNNY   91  60  35 S17       29.64F HX  90
OMAHA          PTSUNNY   74  62  66 VRB3      29.73R
LINCOLN        MOSUNNY   76  62  62 E6        29.73S
FALLS CITY     PTSUNNY   81  65  58 VRB3      29.69F
LAMONI         CLOUDY    69  64  84 SE6       29.77S
DES MOINES     CLOUDY    71  63  75 S10       29.76R

$$





U.S. Dept. of Commerce
NOAA National Weather Service
1325 East West Highway
Silver Spring, MD 20910
E-mail: w-nws.webmaster@noaa.gov
Page last modified: May 16, 2007
NATIONAL WEATHER SERVICE: for Safety, for Work, for Fun - FOR LIFE